DLH443 EDDF-ZSPD

Flight info

Callsign DLH443
Flight time N/A
Altitude 37000
Route CINDY8S/18 CINDY Z74 HAREM DCT ASLEP DCT TAKUT DCT DINKU L603 BESNI L605 MIQ DCT ALUTU DCT BIBAG Q104 AKIMA DCT ARSIN DCT TEGRI DCT DINRO N743 UDROS UM859 KARDE UL851 TBN UM11 REBLO M11 MATAL T916 SUBUT/N0488F390 T916 BALUN/K0898F390 T916 KUNAS T733 EGZIG N147 ELAHA Z621 ARBOL M610 RULAD/K0898S1190 A343 POSOT B215 AKVOV/K0898S1250 B215 FKG W188 LIKMI W270 DKO W69 HUR B339 SOTMU/K0900S1220 W98 ELKUR W40 DOXAB/K0902S1250 W40 YQG/K0907S1220 W142 DALIM/K0907S1250 A593 DPX A470 DALNU W166 ZJ W167 SASAN SAS81A
Aircraft A359/H-SDE2E3GHIJ3J4J5LM1ORWXY/LB1D1

Departure

Time 2026-05-04 17:39
Airport Frankfurt Main Airport (EDDF)

Arrival

Time N/A
Airport Shanghai Pudong International Airport (ZSPD)
Time Latitude Longitude Altitude Speed Heading
2026-05-04 16:56 50.04726 8.56275 362 ft 0 kts 340°
2026-05-04 17:24 50.04702 8.56289 364 ft 4 kts 340°
2026-05-04 17:25 50.04677 8.56304 368 ft 4 kts 335°
2026-05-04 17:25 50.04647 8.56351 368 ft 3 kts 251°
2026-05-04 17:26 50.04662 8.56416 367 ft 1 kts 250°
2026-05-04 17:26 50.04652 8.56372 367 ft 0 kts 250°
2026-05-04 17:29 50.04609 8.56197 367 ft 12 kts 249°
2026-05-04 17:30 50.04448 8.55921 369 ft 13 kts 194°
2026-05-04 17:31 50.04255 8.55954 364 ft 14 kts 211°
2026-05-04 17:31 50.04125 8.55466 365 ft 18 kts 249°
2026-05-04 17:32 50.04039 8.55107 364 ft 18 kts 250°
2026-05-04 17:33 50.03895 8.54503 360 ft 22 kts 250°
2026-05-04 17:33 50.03821 8.54288 359 ft 23 kts 234°
2026-05-04 17:34 50.03640 8.53568 354 ft 25 kts 247°
2026-05-04 17:34 50.03579 8.53316 353 ft 26 kts 250°
2026-05-04 17:35 50.03468 8.52862 354 ft 10 kts 246°
2026-05-04 17:35 50.03463 8.52845 351 ft 0 kts 246°
2026-05-04 17:35 50.03461 8.52837 352 ft 3 kts 246°
2026-05-04 17:36 50.03445 8.52778 351 ft 9 kts 248°
2026-05-04 17:36 50.03440 8.52758 349 ft 0 kts 249°
2026-05-04 17:36 50.03440 8.52756 353 ft 1 kts 249°
2026-05-04 17:37 50.03430 8.52720 351 ft 7 kts 249°
2026-05-04 17:37 50.03402 8.52634 353 ft 11 kts 232°
2026-05-04 17:37 50.03331 8.52596 347 ft 1 kts 180°
2026-05-04 17:38 50.03317 8.52595 355 ft 17 kts 180°
2026-05-04 17:38 50.02964 8.52601 347 ft 82 kts 179°
2026-05-04 17:39 50.01067 8.52624 375 ft 181 kts 179°
2026-05-04 17:39 49.99839 8.52674 1003 ft 175 kts 177°
2026-05-04 17:39 49.98634 8.52776 1615 ft 174 kts 176°
2026-05-04 17:40 49.97425 8.52965 2011 ft 175 kts 172°
2026-05-04 17:40 49.96289 8.53770 2107 ft 190 kts 129°
2026-05-04 17:40 49.95546 8.55513 2346 ft 201 kts 117°
2026-05-04 17:40 49.94860 8.57502 2573 ft 216 kts 117°
2026-05-04 17:41 49.94214 8.59658 2927 ft 225 kts 105°
2026-05-04 17:41 49.93971 8.62112 3280 ft 237 kts 93°
2026-05-04 17:41 49.93879 8.64759 3559 ft 252 kts 92°
2026-05-04 17:41 49.93731 8.67518 3985 ft 260 kts 101°
2026-05-04 17:42 49.93013 8.70081 4530 ft 261 kts 129°
2026-05-04 17:42 49.91672 8.71958 5150 ft 260 kts 145°
2026-05-04 17:42 49.90185 8.73588 5698 ft 263 kts 146°
2026-05-04 17:42 49.88739 8.75330 6316 ft 265 kts 136°
2026-05-04 17:43 49.87645 8.77650 6883 ft 269 kts 123°
2026-05-04 17:43 49.86717 8.80200 7394 ft 274 kts 121°
2026-05-04 17:43 49.85798 8.82800 7939 ft 276 kts 122°
2026-05-04 17:43 49.84872 8.85387 8466 ft 280 kts 122°
2026-05-04 17:44 49.83917 8.88030 9028 ft 283 kts 122°
2026-05-04 17:44 49.82949 8.90703 9585 ft 285 kts 122°
2026-05-04 17:44 49.81969 8.93402 10121 ft 290 kts 123°
2026-05-04 17:44 49.80959 8.96175 10376 ft 303 kts 122°
2026-05-04 17:45 49.79900 8.99078 10618 ft 316 kts 122°
2026-05-04 17:45 49.78801 9.02091 10874 ft 329 kts 122°
2026-05-04 17:45 49.77647 9.05252 10968 ft 346 kts 122°
2026-05-04 17:45 49.76476 9.08618 10974 ft 366 kts 117°
2026-05-04 17:46 49.75655 9.12435 10972 ft 379 kts 107°
2026-05-04 17:46 49.74983 9.16397 10971 ft 381 kts 110°
2026-05-04 17:46 49.73863 9.20076 10996 ft 376 kts 126°
2026-05-04 17:46 49.72359 9.23306 11030 ft 376 kts 131°
2026-05-04 17:47 49.70666 9.26401 11474 ft 376 kts 134°
2026-05-04 17:47 49.68905 9.29415 11983 ft 377 kts 135°
2026-05-04 17:47 49.67129 9.32408 12428 ft 380 kts 135°
2026-05-04 17:47 49.65341 9.35438 12849 ft 383 kts 134°
2026-05-04 17:48 49.63560 9.38513 13263 ft 386 kts 133°
2026-05-04 17:48 49.62034 9.41949 13652 ft 393 kts 120°
2026-05-04 17:48 49.60902 9.45802 14045 ft 396 kts 114°
2026-05-04 17:48 49.59929 9.49824 14391 ft 400 kts 111°
2026-05-04 17:49 49.59048 9.53906 14726 ft 404 kts 110°
2026-05-04 17:49 49.58210 9.57986 15116 ft 405 kts 109°
2026-05-04 17:49 49.57359 9.62146 15475 ft 408 kts 109°
2026-05-04 17:49 49.56492 9.66324 15844 ft 410 kts 109°
2026-05-04 17:50 49.55614 9.70489 16280 ft 410 kts 110°
2026-05-04 17:50 49.54716 9.74679 16627 ft 413 kts 110°
2026-05-04 17:50 49.53803 9.78886 16974 ft 415 kts 110°
2026-05-04 17:50 49.52631 9.82942 17318 ft 415 kts 122°
2026-05-04 17:51 49.51048 9.86662 17692 ft 415 kts 127°
2026-05-04 17:51 49.49319 9.90226 18043 ft 416 kts 130°
2026-05-04 17:51 49.47507 9.93710 18398 ft 417 kts 132°
2026-05-04 17:51 49.45655 9.97162 18693 ft 419 kts 132°
2026-05-04 17:52 49.43808 10.00576 18989 ft 421 kts 132°
2026-05-04 17:52 49.41929 10.04059 19296 ft 423 kts 132°
2026-05-04 17:52 49.40046 10.07570 19591 ft 425 kts 132°
2026-05-04 17:52 49.38170 10.11083 19902 ft 427 kts 132°
2026-05-04 17:53 49.36286 10.14628 20189 ft 428 kts 132°
2026-05-04 17:53 49.34403 10.18174 20480 ft 430 kts 132°
2026-05-04 17:53 49.32506 10.21737 20773 ft 432 kts 132°
2026-05-04 17:53 49.30600 10.25310 21059 ft 433 kts 132°
2026-05-04 17:54 49.28737 10.28967 21312 ft 438 kts 127°
2026-05-04 17:54 49.27217 10.33039 21554 ft 443 kts 119°
2026-05-04 17:54 49.25899 10.37311 21833 ft 446 kts 117°
2026-05-04 17:54 49.24668 10.41682 22109 ft 448 kts 115°
2026-05-04 17:55 49.23495 10.46048 22359 ft 450 kts 115°
2026-05-04 17:55 49.22314 10.50505 22612 ft 452 kts 115°
2026-05-04 17:55 49.21127 10.54974 22898 ft 454 kts 115°
2026-05-04 17:55 49.19928 10.59446 23172 ft 456 kts 115°
2026-05-04 17:56 49.18715 10.63925 23430 ft 457 kts 115°
2026-05-04 17:56 49.17489 10.68420 23647 ft 459 kts 115°
2026-05-04 17:56 49.16258 10.72908 23883 ft 460 kts 115°
2026-05-04 17:56 49.15012 10.77437 24107 ft 462 kts 115°
2026-05-04 17:57 49.13763 10.81963 24327 ft 463 kts 115°
2026-05-04 17:57 49.12510 10.86498 24519 ft 465 kts 115°
2026-05-04 17:57 49.11248 10.91056 24741 ft 466 kts 115°
2026-05-04 17:57 49.09977 10.95636 24955 ft 468 kts 115°
2026-05-04 17:58 49.08719 11.00165 25149 ft 470 kts 115°
2026-05-04 17:58 49.07441 11.04759 25366 ft 471 kts 115°
2026-05-04 17:58 49.06158 11.09362 25568 ft 473 kts 115°
2026-05-04 17:58 49.05283 11.12496 25683 ft 475 kts 115°
2026-05-04 17:59 49.04000 11.17082 25879 ft 476 kts 115°
2026-05-04 17:59 49.02695 11.21739 26128 ft 478 kts 115°
2026-05-04 17:59 49.00066 11.31094 26574 ft 481 kts 115°
2026-05-04 18:00 48.98746 11.35776 26806 ft 482 kts 115°
2026-05-04 18:00 48.97420 11.40474 27052 ft 483 kts 115°
2026-05-04 18:00 48.96087 11.45183 27263 ft 485 kts 115°
2026-05-04 18:00 48.94746 11.49909 27490 ft 487 kts 115°
2026-05-04 18:01 48.93405 11.54623 27861 ft 486 kts 115°
2026-05-04 18:01 48.92061 11.59343 28091 ft 487 kts 115°
2026-05-04 18:01 48.90708 11.64087 28319 ft 489 kts 115°
2026-05-04 18:02 48.88004 11.73541 28775 ft 492 kts 115°
2026-05-04 18:02 48.86631 11.78324 29026 ft 494 kts 115°
2026-05-04 18:02 48.85257 11.83105 29236 ft 496 kts 115°
2026-05-04 18:02 48.83872 11.87911 29476 ft 497 kts 115°
2026-05-04 18:03 48.82483 11.92724 29691 ft 499 kts 115°
2026-05-04 18:03 48.81082 11.97566 29914 ft 501 kts 116°
2026-05-04 18:03 48.79681 12.02401 30128 ft 502 kts 116°
2026-05-04 18:03 48.78267 12.07268 30359 ft 502 kts 116°
2026-05-04 18:04 48.76860 12.12103 30668 ft 501 kts 116°
2026-05-04 18:04 48.75455 12.16924 30988 ft 499 kts 116°
2026-05-04 18:04 48.72648 12.26527 31616 ft 497 kts 116°
2026-05-04 18:05 48.71247 12.31305 31855 ft 498 kts 116°
2026-05-04 18:05 48.69839 12.36094 32109 ft 497 kts 116°
2026-05-04 18:05 48.68427 12.40887 32421 ft 496 kts 116°
2026-05-04 18:05 48.67022 12.45649 32724 ft 495 kts 116°
2026-05-04 18:06 48.64222 12.55116 33477 ft 490 kts 116°
2026-05-04 18:06 48.62832 12.59801 33871 ft 486 kts 117°
2026-05-04 18:06 48.61469 12.64391 34225 ft 483 kts 117°
2026-05-04 18:07 48.60095 12.69006 34580 ft 479 kts 117°
2026-05-04 18:07 48.58730 12.73580 34952 ft 476 kts 117°
2026-05-04 18:07 48.57372 12.78120 35311 ft 471 kts 117°
2026-05-04 18:07 48.56030 12.82602 35806 ft 464 kts 117°
2026-05-04 18:08 48.54699 12.87034 36017 ft 465 kts 117°
2026-05-04 18:08 48.53359 12.91485 36075 ft 468 kts 117°
2026-05-04 18:08 48.50642 13.00478 36240 ft 473 kts 117°
2026-05-04 18:09 48.47915 13.09486 36379 ft 478 kts 116°
2026-05-04 18:09 48.45134 13.18647 36527 ft 482 kts 116°
2026-05-04 18:10 48.42315 13.27900 36662 ft 487 kts 116°
2026-05-04 18:10 48.39880 13.37485 36816 ft 492 kts 111°
2026-05-04 18:11 48.37644 13.47206 36892 ft 497 kts 110°
2026-05-04 18:11 48.35400 13.57076 36891 ft 499 kts 110°
2026-05-04 18:12 48.33143 13.66929 36889 ft 498 kts 110°
2026-05-04 18:12 48.30871 13.76766 36889 ft 498 kts 110°
2026-05-04 18:13 48.28601 13.86535 36881 ft 498 kts 110°
2026-05-04 18:14 48.25144 14.01254 36895 ft 499 kts 110°
2026-05-04 18:14 48.22801 14.11041 36875 ft 499 kts 111°
2026-05-04 18:15 48.18064 14.30606 36883 ft 498 kts 111°
2026-05-04 18:16 48.15686 14.40365 36883 ft 498 kts 111°
2026-05-04 18:16 48.13313 14.50062 36886 ft 498 kts 111°
2026-05-04 18:17 48.09725 14.64651 36892 ft 498 kts 111°
2026-05-04 18:18 48.06106 14.79260 36895 ft 499 kts 111°
2026-05-04 18:18 48.03685 14.88983 36896 ft 499 kts 111°
2026-05-04 18:19 48.00046 15.03517 36898 ft 499 kts 111°
2026-05-04 18:19 47.97595 15.13253 36909 ft 501 kts 111°
2026-05-04 18:20 47.95130 15.23011 36918 ft 502 kts 111°
2026-05-04 18:20 47.92672 15.32693 36928 ft 502 kts 111°
2026-05-04 18:21 47.90190 15.42424 36931 ft 502 kts 111°
2026-05-04 18:21 47.87696 15.52164 36942 ft 503 kts 111°
2026-05-04 18:22 47.85196 15.61890 36938 ft 503 kts 111°
2026-05-04 18:22 47.82683 15.71620 36955 ft 502 kts 111°
2026-05-04 18:23 47.80184 15.81256 36951 ft 503 kts 111°
2026-05-04 18:23 47.77664 15.90935 36953 ft 500 kts 111°
2026-05-04 18:24 47.75143 16.00573 36950 ft 500 kts 111°
2026-05-04 18:24 47.72613 16.10208 36951 ft 500 kts 111°
2026-05-04 18:25 47.70076 16.19829 36948 ft 500 kts 111°
2026-05-04 18:25 47.67523 16.29472 36952 ft 501 kts 111°
2026-05-04 18:26 47.64977 16.39048 36952 ft 501 kts 111°
2026-05-04 18:26 47.62411 16.48661 36960 ft 501 kts 111°
2026-05-04 18:27 47.59834 16.58276 36959 ft 501 kts 111°
2026-05-04 18:27 47.57251 16.67869 36961 ft 501 kts 111°
2026-05-04 18:28 47.54681 16.77381 36966 ft 501 kts 111°
2026-05-04 18:28 47.52080 16.86968 36963 ft 501 kts 112°
2026-05-04 18:29 47.49474 16.96527 36972 ft 501 kts 111°
2026-05-04 18:29 47.46862 17.06077 36975 ft 500 kts 111°
2026-05-04 18:30 47.42948 17.20309 36987 ft 500 kts 111°
2026-05-04 18:31 47.40318 17.29829 36991 ft 500 kts 111°
2026-05-04 18:31 47.37682 17.39329 36995 ft 499 kts 111°
2026-05-04 18:32 47.35042 17.48808 36991 ft 499 kts 111°
2026-05-04 18:32 47.32395 17.58279 36992 ft 499 kts 111°
2026-05-04 18:33 47.29755 17.67684 36996 ft 499 kts 111°
2026-05-04 18:33 47.27093 17.77129 36999 ft 498 kts 111°
2026-05-04 18:34 47.24444 17.86494 37017 ft 497 kts 111°
2026-05-04 18:34 47.21770 17.95908 37020 ft 497 kts 112°
2026-05-04 18:35 47.19092 18.05297 37024 ft 497 kts 112°
2026-05-04 18:35 47.16409 18.14671 37020 ft 497 kts 112°
2026-05-04 18:36 47.13738 18.23968 37021 ft 497 kts 112°
2026-05-04 18:36 47.11040 18.33320 37023 ft 497 kts 112°
2026-05-04 18:37 47.08335 18.42663 37029 ft 497 kts 112°
2026-05-04 18:37 47.05626 18.51984 37026 ft 496 kts 112°
2026-05-04 18:38 47.02925 18.61241 37031 ft 496 kts 112°
2026-05-04 18:38 47.00203 18.70537 37039 ft 496 kts 112°
2026-05-04 18:39 46.97463 18.79857 37041 ft 496 kts 112°
2026-05-04 18:39 46.94722 18.89145 37034 ft 496 kts 112°
2026-05-04 18:40 46.91990 18.98371 37037 ft 496 kts 112°
2026-05-04 18:40 46.89236 19.07635 37039 ft 496 kts 112°
2026-05-04 18:41 46.86472 19.16897 37043 ft 496 kts 112°
2026-05-04 18:41 46.83706 19.26131 37047 ft 495 kts 112°
2026-05-04 18:42 46.80937 19.35341 37047 ft 495 kts 112°
2026-05-04 18:42 46.78170 19.44512 37044 ft 495 kts 112°
2026-05-04 18:43 46.75382 19.53714 37048 ft 495 kts 112°
2026-05-04 18:43 46.73064 19.61341 37048 ft 494 kts 112°
2026-05-04 18:44 46.70271 19.70502 37051 ft 495 kts 112°
2026-05-04 18:44 46.67463 19.79679 37050 ft 495 kts 112°
2026-05-04 18:45 46.64676 19.88755 37053 ft 494 kts 112°
2026-05-04 18:45 46.61861 19.97885 37063 ft 494 kts 112°
2026-05-04 18:46 46.59039 20.07006 37057 ft 494 kts 112°
2026-05-04 18:46 46.56217 20.16096 37057 ft 494 kts 112°
2026-05-04 18:47 46.53378 20.25208 37069 ft 494 kts 112°
2026-05-04 18:47 46.50537 20.34291 37069 ft 494 kts 112°
2026-05-04 18:48 46.47688 20.43370 37059 ft 494 kts 112°
2026-05-04 18:48 46.44833 20.52435 37079 ft 494 kts 112°
2026-05-04 18:49 46.41970 20.61492 37065 ft 494 kts 112°
2026-05-04 18:49 46.39119 20.70484 37052 ft 494 kts 112°
2026-05-04 18:50 46.36241 20.79525 37067 ft 494 kts 112°
2026-05-04 18:50 46.33356 20.88556 37066 ft 494 kts 112°
2026-05-04 18:51 46.30466 20.97572 37085 ft 494 kts 112°
2026-05-04 18:51 46.27569 21.06577 37070 ft 494 kts 112°
2026-05-04 18:52 46.24734 21.15546 37071 ft 493 kts 110°
2026-05-04 18:52 46.22133 21.24715 37077 ft 493 kts 109°
2026-05-04 18:53 46.19567 21.33899 37068 ft 494 kts 109°
2026-05-04 18:53 46.16951 21.43072 37075 ft 494 kts 110°
2026-05-04 18:54 46.14307 21.52209 37075 ft 494 kts 110°
2026-05-04 18:54 46.11642 21.61362 37080 ft 494 kts 110°
2026-05-04 18:55 46.08973 21.70500 37081 ft 495 kts 110°
2026-05-04 18:55 46.04957 21.84200 37081 ft 495 kts 110°
2026-05-04 18:56 46.02286 21.93268 37089 ft 495 kts 110°
2026-05-04 18:56 45.99588 22.02392 37083 ft 494 kts 110°
2026-05-04 18:57 45.96890 22.11486 37086 ft 494 kts 110°
2026-05-04 18:57 45.94186 22.20564 37089 ft 494 kts 111°
2026-05-04 18:58 45.91475 22.29634 37091 ft 494 kts 111°
2026-05-04 18:58 45.88777 22.38628 37097 ft 494 kts 111°
2026-05-04 18:59 45.86051 22.47680 37099 ft 494 kts 111°
2026-05-04 18:59 45.83311 22.56748 37100 ft 494 kts 111°
2026-05-04 19:00 45.80573 22.65778 37103 ft 494 kts 111°
2026-05-04 19:00 45.77841 22.74759 37096 ft 494 kts 111°
2026-05-04 19:01 45.75085 22.83783 37099 ft 494 kts 111°
2026-05-04 19:01 45.72324 22.92785 37098 ft 494 kts 111°
2026-05-04 19:02 45.69555 23.01784 37102 ft 494 kts 111°
2026-05-04 19:02 45.66799 23.10715 37107 ft 494 kts 111°
2026-05-04 19:03 45.64011 23.19713 37108 ft 494 kts 111°
2026-05-04 19:03 45.61221 23.28689 37123 ft 494 kts 111°
2026-05-04 19:04 45.58425 23.37655 37112 ft 495 kts 111°
2026-05-04 19:04 45.55620 23.46617 37122 ft 495 kts 112°
2026-05-04 19:05 45.52816 23.55545 37121 ft 495 kts 112°
2026-05-04 19:05 45.49989 23.64512 37121 ft 495 kts 112°
2026-05-04 19:06 45.47161 23.73450 37122 ft 495 kts 112°
2026-05-04 19:06 45.44311 23.82390 37120 ft 495 kts 112°
2026-05-04 19:07 45.41450 23.91319 37120 ft 495 kts 112°
2026-05-04 19:07 45.38612 24.00175 37113 ft 495 kts 112°
2026-05-04 19:08 45.35746 24.09111 37104 ft 496 kts 112°
2026-05-04 19:08 45.32876 24.18032 37107 ft 496 kts 112°
2026-05-04 19:09 45.29993 24.26959 37106 ft 496 kts 112°
2026-05-04 19:09 45.27131 24.35792 37092 ft 496 kts 113°
2026-05-04 19:10 45.24243 24.44680 37095 ft 496 kts 113°
2026-05-04 19:10 45.21345 24.53563 37085 ft 496 kts 113°
2026-05-04 19:11 45.18436 24.62451 37067 ft 496 kts 113°
2026-05-04 19:11 45.15543 24.71259 37087 ft 496 kts 114°
2026-05-04 19:12 45.11156 24.84560 37076 ft 496 kts 114°
2026-05-04 19:13 45.08225 24.93409 37078 ft 496 kts 114°
2026-05-04 19:13 45.05283 25.02260 37058 ft 496 kts 114°
2026-05-04 19:14 45.02335 25.11104 37053 ft 497 kts 114°
2026-05-04 19:14 44.99383 25.19926 37072 ft 497 kts 114°
2026-05-04 19:15 44.96425 25.28740 37051 ft 497 kts 114°
2026-05-04 19:15 44.93475 25.37500 37054 ft 497 kts 114°
2026-05-04 19:16 44.90499 25.46304 37054 ft 497 kts 114°
2026-05-04 19:16 44.87519 25.55096 37057 ft 497 kts 114°
2026-05-04 19:17 44.84533 25.63873 37054 ft 496 kts 115°
2026-05-04 19:17 44.81542 25.72638 37045 ft 495 kts 115°
2026-05-04 19:18 44.78551 25.81374 37043 ft 495 kts 115°
2026-05-04 19:18 44.75549 25.90114 37051 ft 495 kts 115°
2026-05-04 19:19 44.72546 25.98828 37053 ft 495 kts 115°
2026-05-04 19:19 44.69537 26.07531 37045 ft 495 kts 115°
2026-05-04 19:20 44.66537 26.16181 37047 ft 495 kts 115°
2026-05-04 19:20 44.63513 26.24871 37049 ft 496 kts 115°
2026-05-04 19:21 44.60477 26.33568 37048 ft 496 kts 115°
2026-05-04 19:21 44.57431 26.42265 37046 ft 496 kts 115°
2026-05-04 19:22 44.54382 26.50944 37047 ft 496 kts 115°
2026-05-04 19:22 44.51324 26.59619 37046 ft 496 kts 115°
2026-05-04 19:23 44.48257 26.68292 37044 ft 496 kts 115°
2026-05-04 19:23 44.45184 26.76957 37045 ft 497 kts 115°
2026-05-04 19:24 44.42123 26.85558 37041 ft 497 kts 115°
2026-05-04 19:24 44.39033 26.94213 37048 ft 496 kts 115°
2026-05-04 19:25 44.35941 27.02848 37046 ft 496 kts 115°
2026-05-04 19:25 44.32843 27.11472 37050 ft 496 kts 115°
2026-05-04 19:26 44.29741 27.20079 37046 ft 496 kts 115°
2026-05-04 19:26 44.26639 27.28657 37045 ft 495 kts 115°
2026-05-04 19:27 44.23545 27.37191 37048 ft 495 kts 115°
2026-05-04 19:27 44.20423 27.45773 37055 ft 495 kts 115°
2026-05-04 19:28 44.17299 27.54334 37049 ft 495 kts 115°
2026-05-04 19:28 44.14192 27.62824 37051 ft 495 kts 115°
2026-05-04 19:29 44.11054 27.71371 37051 ft 495 kts 115°
2026-05-04 19:29 44.07916 27.79892 37050 ft 495 kts 115°
2026-05-04 19:30 44.05302 27.86968 37052 ft 494 kts 115°
2026-05-04 19:30 44.02154 27.95468 37053 ft 495 kts 115°
2026-05-04 19:31 43.98994 28.03974 37061 ft 495 kts 115°
2026-05-04 19:31 43.95838 28.12443 37046 ft 493 kts 115°
2026-05-04 19:32 43.92681 28.20890 37049 ft 493 kts 115°
2026-05-04 19:32 43.89539 28.29271 37049 ft 493 kts 115°
2026-05-04 19:33 43.86369 28.37699 37047 ft 492 kts 115°
2026-05-04 19:33 43.83197 28.46108 37045 ft 491 kts 115°
2026-05-04 19:34 43.80027 28.54490 37044 ft 491 kts 115°
2026-05-04 19:34 43.76848 28.62868 37061 ft 491 kts 115°
2026-05-04 19:35 43.73685 28.71179 37050 ft 490 kts 115°
2026-05-04 19:35 43.70467 28.79500 37046 ft 491 kts 118°
2026-05-04 19:36 43.66637 28.87332 37046 ft 493 kts 123°
2026-05-04 19:36 43.62625 28.95019 37042 ft 493 kts 123°
2026-05-04 19:37 43.58606 29.02626 37041 ft 493 kts 123°
2026-05-04 19:37 43.54564 29.10281 37041 ft 493 kts 123°
2026-05-04 19:38 43.50528 29.17928 37054 ft 493 kts 123°
2026-05-04 19:38 43.46496 29.25555 37031 ft 493 kts 123°
2026-05-04 19:39 43.42452 29.33185 37028 ft 493 kts 123°
2026-05-04 19:39 43.38398 29.40813 37029 ft 493 kts 123°
2026-05-04 19:40 43.34368 29.48374 37025 ft 493 kts 123°
2026-05-04 19:40 43.30303 29.55982 37021 ft 493 kts 123°
2026-05-04 19:41 43.26233 29.63581 37019 ft 493 kts 123°
2026-05-04 19:41 43.22167 29.71153 37019 ft 494 kts 123°
2026-05-04 19:42 43.18085 29.78734 37010 ft 494 kts 123°
2026-05-04 19:42 43.14002 29.86299 37016 ft 494 kts 123°
2026-05-04 19:43 43.09914 29.93853 37028 ft 494 kts 123°
2026-05-04 19:43 43.05822 30.01393 37000 ft 494 kts 123°
2026-05-04 19:44 43.01722 30.08933 36996 ft 494 kts 123°
2026-05-04 19:44 42.97610 30.16474 37011 ft 495 kts 123°
2026-05-04 19:45 42.93518 30.23959 37000 ft 494 kts 123°
2026-05-04 19:45 42.88615 30.32901 36995 ft 494 kts 123°
2026-05-04 19:46 42.80367 30.47886 36992 ft 494 kts 123°
2026-05-04 19:46 42.73211 30.66637 36978 ft 477 kts 96°
2026-05-04 19:47 42.69544 31.02261 36959 ft 476 kts 94°
2026-05-04 19:47 42.65783 31.37861 36942 ft 475 kts 95°
2026-05-04 19:48 42.61927 31.73306 36925 ft 475 kts 95°
2026-05-04 19:48 42.57993 32.08693 36916 ft 477 kts 95°
2026-05-04 19:49 42.53885 32.44242 36917 ft 477 kts 96°
2026-05-04 19:49 42.49684 32.79711 36917 ft 475 kts 97°
2026-05-04 19:50 42.45389 33.15001 36921 ft 475 kts 97°
2026-05-04 19:50 42.40988 33.50422 36928 ft 476 kts 97°
2026-05-04 19:51 42.36481 33.85564 36930 ft 477 kts 97°
2026-05-04 19:51 42.31833 34.21044 36936 ft 479 kts 98°
2026-05-04 19:52 42.27069 34.56509 36936 ft 480 kts 99°
2026-05-04 19:52 42.22158 34.92075 36935 ft 482 kts 99°
2026-05-04 19:53 42.17142 35.27589 36939 ft 482 kts 100°
2026-05-04 19:53 42.12028 35.62980 36938 ft 483 kts 101°
2026-05-04 19:54 42.06778 35.98529 36935 ft 485 kts 101°
2026-05-04 19:54 42.01391 36.34203 36939 ft 487 kts 102°
2026-05-04 19:55 41.95897 36.69795 36939 ft 486 kts 102°
2026-05-04 19:55 41.90092 37.05133 36939 ft 487 kts 110°
2026-05-04 19:56 41.79629 37.38775 36933 ft 489 kts 114°
2026-05-04 19:56 41.68930 37.72342 36926 ft 490 kts 114°
2026-05-04 19:57 41.58111 38.05837 36919 ft 491 kts 115°
2026-05-04 19:57 41.47196 38.39239 36909 ft 492 kts 115°
2026-05-04 19:58 41.36217 38.72437 36903 ft 491 kts 115°
2026-05-04 19:58 41.25269 39.05745 36898 ft 492 kts 115°
2026-05-04 19:59 41.13951 39.38821 36904 ft 492 kts 117°
2026-05-04 19:59 41.02349 39.71707 36912 ft 493 kts 117°
2026-05-04 19:59 40.99265 39.89406 36911 ft 501 kts 95°
2026-05-04 20:00 40.98854 40.07904 36902 ft 504 kts 94°
2026-05-04 20:00 40.97890 40.44728 36877 ft 502 kts 95°
2026-05-04 20:01 40.96771 40.81671 36887 ft 503 kts 95°
2026-05-04 20:01 40.95528 41.18714 36906 ft 505 kts 96°
2026-05-04 20:02 40.94161 41.55840 36877 ft 505 kts 96°
2026-05-04 20:02 40.92686 41.92771 36880 ft 506 kts 97°
2026-05-04 20:03 40.91070 42.30088 36907 ft 510 kts 97°
2026-05-04 20:03 40.89331 42.67545 36912 ft 512 kts 98°
2026-05-04 20:04 40.87467 43.05051 36919 ft 511 kts 98°
2026-05-04 20:04 40.85480 43.42549 36898 ft 510 kts 98°
2026-05-04 20:05 40.83593 43.79656 36904 ft 511 kts 96°
2026-05-04 20:05 40.82397 44.17279 36898 ft 512 kts 97°
2026-05-04 20:06 40.80992 44.55014 36880 ft 515 kts 98°
2026-05-04 20:06 40.79454 44.92927 36839 ft 518 kts 99°
2026-05-04 20:07 40.77799 45.30645 37896 ft 509 kts 99°
2026-05-04 20:07 40.77041 45.49331 38351 ft 516 kts 94°
2026-05-04 20:07 40.78707 45.68176 38718 ft 525 kts 87°
2026-05-04 20:08 40.82665 46.06630 38807 ft 535 kts 87°
2026-05-04 20:08 40.86523 46.45971 38828 ft 544 kts 87°
2026-05-04 20:09 40.90659 46.85818 38846 ft 552 kts 81°
2026-05-04 20:09 40.97942 47.25346 38855 ft 552 kts 79°
2026-05-04 20:10 41.05033 47.64632 38855 ft 551 kts 79°
2026-05-04 20:10 41.08558 47.84421 38848 ft 540 kts 78°
2026-05-04 20:10 41.12456 48.03374 38858 ft 540 kts 71°
2026-05-04 20:11 41.22805 48.40742 38872 ft 542 kts 71°
2026-05-04 20:11 41.33220 48.78908 38920 ft 551 kts 71°
2026-05-04 20:12 41.43540 49.17323 38929 ft 551 kts 72°
2026-05-04 20:12 41.53669 49.55639 38926 ft 550 kts 72°
2026-05-04 20:13 41.63720 49.94257 38925 ft 547 kts 72°
2026-05-04 20:13 41.73573 50.32731 38920 ft 544 kts 72°
2026-05-04 20:14 41.83239 50.71090 38916 ft 542 kts 73°
2026-05-04 20:14 41.92759 51.09488 38907 ft 541 kts 73°
2026-05-04 20:15 42.02529 51.47440 38909 ft 542 kts 60°
2026-05-04 20:15 42.18864 51.81618 38901 ft 543 kts 57°
2026-05-04 20:16 42.35284 52.15959 38895 ft 544 kts 57°
2026-05-04 20:16 42.51596 52.50467 38894 ft 545 kts 57°
2026-05-04 20:17 42.67836 52.85227 38890 ft 545 kts 58°
2026-05-04 20:17 42.83856 53.19917 38876 ft 544 kts 58°
2026-05-04 20:18 42.97262 53.49264 38877 ft 543 kts 58°
2026-05-04 20:18 43.02195 53.68446 38873 ft 537 kts 85°
2026-05-04 20:18 43.03558 53.88485 38869 ft 535 kts 87°
2026-05-04 20:19 43.06151 54.28990 38865 ft 535 kts 86°
2026-05-04 20:19 43.08646 54.69594 38862 ft 532 kts 87°
2026-05-04 20:20 43.10983 55.10013 38857 ft 534 kts 87°
2026-05-04 20:20 43.13183 55.50510 38854 ft 534 kts 88°
2026-05-04 20:21 43.15258 55.91400 38860 ft 541 kts 88°
2026-05-04 20:21 43.12408 56.52622 38867 ft 536 kts 97°
2026-05-04 20:22 43.09741 56.92992 38879 ft 535 kts 97°
2026-05-04 20:22 43.06914 57.33545 38879 ft 535 kts 97°
2026-05-04 20:23 43.03948 57.74010 38889 ft 535 kts 97°
2026-05-04 20:23 43.00826 58.14619 38906 ft 537 kts 97°
2026-05-04 20:24 42.97572 58.55040 38924 ft 538 kts 97°
2026-05-04 20:24 42.94162 58.95585 38927 ft 538 kts 97°
2026-05-04 20:25 42.91194 59.29530 38926 ft 536 kts 97°
2026-05-04 20:25 42.87538 59.69810 38936 ft 534 kts 98°
2026-05-04 20:26 42.83749 60.09959 38934 ft 535 kts 98°
2026-05-04 20:26 42.79829 60.49963 38938 ft 534 kts 98°
2026-05-04 20:27 42.75753 60.90086 38940 ft 534 kts 98°
2026-05-04 20:27 42.71651 61.30110 38949 ft 534 kts 98°
2026-05-04 20:28 42.67442 61.69979 38943 ft 533 kts 98°
2026-05-04 20:28 42.63117 62.09576 38955 ft 532 kts 99°
2026-05-04 20:29 42.58645 62.49219 38955 ft 530 kts 99°
2026-05-04 20:29 42.54049 62.88696 38963 ft 528 kts 99°
2026-05-04 20:30 42.49323 63.28070 38977 ft 529 kts 99°
2026-05-04 20:30 42.44456 63.67377 38981 ft 529 kts 99°
2026-05-04 20:31 42.41858 64.06656 38989 ft 524 kts 74°
2026-05-04 20:31 42.50310 64.44437 38988 ft 524 kts 71°
2026-05-04 20:32 42.58700 64.82290 38994 ft 522 kts 71°
2026-05-04 20:32 42.66883 65.19837 38980 ft 521 kts 71°
2026-05-04 20:33 42.74987 65.57690 38983 ft 520 kts 71°
2026-05-04 20:33 42.82952 65.95563 38989 ft 519 kts 72°
2026-05-04 20:34 42.90723 66.33454 38991 ft 518 kts 72°
2026-05-04 20:34 42.98378 66.71427 38991 ft 517 kts 72°
2026-05-04 20:35 43.05841 67.09055 38982 ft 515 kts 73°
2026-05-04 20:35 43.13192 67.46947 38980 ft 513 kts 73°
2026-05-04 20:36 43.20400 67.84776 38983 ft 513 kts 73°
2026-05-04 20:36 43.27402 68.22341 38983 ft 511 kts 73°
2026-05-04 20:37 43.29027 68.41735 38982 ft 514 kts 86°
2026-05-04 20:37 43.29407 68.61375 38992 ft 514 kts 86°
2026-05-04 20:37 43.30142 69.00597 39001 ft 513 kts 86°
2026-05-04 20:38 43.30764 69.39864 39019 ft 513 kts 87°
2026-05-04 20:38 43.31250 69.78643 39034 ft 511 kts 88°
2026-05-04 20:39 43.31607 70.17741 39031 ft 511 kts 88°
2026-05-04 20:39 43.31830 70.56798 39030 ft 511 kts 89°
2026-05-04 20:40 43.31920 70.95917 39032 ft 512 kts 89°
2026-05-04 20:40 43.31877 71.35042 39036 ft 512 kts 89°
2026-05-04 20:41 43.31700 71.74167 39039 ft 512 kts 90°
2026-05-04 20:41 43.31390 72.13292 39041 ft 512 kts 90°
2026-05-04 20:42 43.30950 72.52171 39046 ft 511 kts 90°
2026-05-04 20:42 43.30374 72.91278 39052 ft 512 kts 91°
2026-05-04 20:43 43.29665 73.30384 39060 ft 513 kts 91°
2026-05-04 20:43 43.28818 73.69640 39059 ft 514 kts 91°
2026-05-04 20:44 43.27838 74.08908 39065 ft 514 kts 92°
2026-05-04 20:44 43.26722 74.48163 39071 ft 514 kts 92°
2026-05-04 20:45 43.25482 74.87102 39080 ft 514 kts 92°
2026-05-04 20:45 43.24100 75.26303 39090 ft 515 kts 93°
2026-05-04 20:46 43.22584 75.65485 39105 ft 515 kts 93°
2026-05-04 20:46 43.20935 76.04634 39113 ft 514 kts 94°
2026-05-04 20:47 43.19148 76.43823 39108 ft 516 kts 94°
2026-05-04 20:47 43.17219 76.83188 39106 ft 518 kts 94°
2026-05-04 20:48 43.15162 77.22395 39107 ft 517 kts 94°
2026-05-04 20:48 43.12966 77.61659 39133 ft 517 kts 95°
2026-05-04 20:49 43.10626 78.01052 39112 ft 520 kts 95°
2026-05-04 20:49 43.08133 78.40669 39099 ft 522 kts 95°
2026-05-04 20:50 43.05506 78.80261 39101 ft 524 kts 95°
2026-05-04 20:50 43.02726 79.20022 39099 ft 525 kts 96°
2026-05-04 20:51 42.99828 79.59482 39110 ft 526 kts 96°
2026-05-04 20:51 42.96764 79.99295 39112 ft 528 kts 96°
2026-05-04 20:52 42.93547 80.39266 39112 ft 530 kts 97°
2026-05-04 20:52 42.90184 80.79264 39111 ft 529 kts 97°
2026-05-04 20:53 42.86691 81.19111 39115 ft 529 kts 97°
2026-05-04 20:53 42.83049 81.59033 39119 ft 531 kts 98°
2026-05-04 20:54 42.79265 81.98940 39116 ft 530 kts 98°
2026-05-04 20:54 42.75380 82.38426 39122 ft 529 kts 99°
2026-05-04 20:55 42.71339 82.78059 39073 ft 530 kts 99°
2026-05-04 20:55 42.67135 83.17896 39045 ft 531 kts 100°
2026-05-04 20:56 42.62785 83.57738 39042 ft 535 kts 101°
2026-05-04 20:56 42.58254 83.97908 39016 ft 538 kts 102°
2026-05-04 20:57 42.53589 84.37960 39009 ft 543 kts 102°
2026-05-04 20:57 42.48721 84.78521 38994 ft 547 kts 103°
2026-05-04 20:58 42.43659 85.19362 38981 ft 553 kts 103°
2026-05-04 20:58 42.38443 85.60202 38898 ft 556 kts 104°
2026-05-04 20:59 42.33033 86.01364 38830 ft 556 kts 104°
2026-05-04 20:59 42.27449 86.42653 38806 ft 560 kts 104°
2026-05-04 21:00 42.21679 86.84132 38796 ft 564 kts 105°
2026-05-04 21:00 42.15708 87.25900 38789 ft 569 kts 105°
2026-05-04 21:01 42.09591 87.67550 38798 ft 570 kts 105°
2026-05-04 21:01 42.03267 88.09484 38794 ft 571 kts 105°
2026-05-04 21:02 41.96776 88.51436 38775 ft 573 kts 106°
2026-05-04 21:02 41.90111 88.93424 38773 ft 576 kts 106°
2026-05-04 21:03 41.83262 89.35521 38777 ft 577 kts 106°
2026-05-04 21:03 41.76273 89.77454 38789 ft 576 kts 106°
2026-05-04 21:04 41.69129 90.19304 38796 ft 576 kts 107°
2026-05-04 21:04 41.61881 90.60787 38794 ft 576 kts 107°
2026-05-04 21:05 41.54430 91.02481 38771 ft 576 kts 107°
2026-05-04 21:05 41.46829 91.44074 38742 ft 577 kts 107°
2026-05-04 21:06 41.40402 91.78551 38723 ft 578 kts 107°
2026-05-04 21:06 41.32494 92.20136 38700 ft 579 kts 107°
2026-05-04 21:07 41.24433 92.61643 38724 ft 578 kts 107°
2026-05-04 21:07 41.16236 93.02986 38719 ft 579 kts 107°
2026-05-04 21:08 41.07923 93.44067 38718 ft 579 kts 107°
2026-05-04 21:08 40.99423 93.85243 38709 ft 579 kts 107°
2026-05-04 21:09 40.90770 94.26342 38711 ft 578 kts 107°
2026-05-04 21:09 40.82061 94.66928 38686 ft 578 kts 107°
2026-05-04 21:10 40.73136 95.07734 38689 ft 578 kts 107°
2026-05-04 21:10 40.64070 95.48426 38681 ft 579 kts 107°
2026-05-04 21:11 40.54849 95.89056 38684 ft 580 kts 107°
2026-05-04 21:11 40.45475 96.29622 38692 ft 579 kts 107°
2026-05-04 21:12 40.36038 96.69745 38692 ft 580 kts 107°
2026-05-04 21:12 40.26390 97.10058 38692 ft 579 kts 107°
2026-05-04 21:13 40.16618 97.50188 38692 ft 578 kts 107°
2026-05-04 21:13 40.06717 97.90170 38679 ft 577 kts 108°
2026-05-04 21:14 39.96692 98.29979 38669 ft 576 kts 108°
2026-05-04 21:14 39.86627 98.69305 38664 ft 574 kts 108°
2026-05-04 21:15 39.76370 99.08741 38692 ft 576 kts 108°
2026-05-04 21:15 39.65964 99.48115 39171 ft 568 kts 108°
2026-05-04 21:16 39.60869 99.67167 40324 ft 555 kts 108°
2026-05-04 21:16 39.55740 99.86206 40533 ft 562 kts 108°
2026-05-04 21:16 39.50537 100.05378 40659 ft 566 kts 108°
2026-05-04 21:16 39.45281 100.24591 41044 ft 561 kts 108°
2026-05-04 21:17 39.40094 100.43419 41670 ft 557 kts 109°
2026-05-04 21:17 39.34838 100.62356 41664 ft 562 kts 109°
2026-05-04 21:17 39.24181 101.00331 41667 ft 562 kts 109°
2026-05-04 21:18 39.13471 101.37947 41686 ft 562 kts 109°
2026-05-04 21:18 39.02580 101.75656 41688 ft 563 kts 109°
2026-05-04 21:19 38.91522 102.13404 41691 ft 564 kts 109°
2026-05-04 21:19 38.80317 102.51122 41717 ft 566 kts 110°
2026-05-04 21:20 38.68981 102.88753 41717 ft 566 kts 110°
2026-05-04 21:20 38.57495 103.26362 41720 ft 566 kts 110°
2026-05-04 21:21 38.45987 103.63538 41727 ft 566 kts 110°
2026-05-04 21:21 38.34269 104.00887 41750 ft 565 kts 110°
2026-05-04 21:22 38.22497 104.37915 41763 ft 563 kts 110°
2026-05-04 21:22 38.12275 104.69678 41757 ft 563 kts 110°